Terug naar catalogus

APRIZESAT 7

ActiefCommunicatieSSO
NORAD 39416·PAYLOAD·🇺🇸 United States

Gelanceerd Nov 21, 2013 vanaf Dombarovsky

Loading…

Volgende Passages (komende 24 uur)

TLE

VersSource: Space-Track

Epoch: Sep 14, 2026, 07:18 UTC

1 39416U 13066A   26257.30461637  .00000869  00000-0  91084-4 0  9990
2 39416  97.7797 209.2911 0034140 276.3622  83.3709 14.91747117694512

Volg APRIZESAT 7 in realtime met AllMySat

Download on the App Store